WI1SKY Weather Reports


Display with metric or nautical units.
time (UTC)temp
F
wind
direction
speed
MPH
gust
MPH
rain 1hr
in
rain 24hr
in
rain mn
in
humidity
%
barometer
mb
20260905002030 83 215 0.0 1.0 0.00 0.14 0.14 78 1011.0
20260905001527 83 215 0.0 2.0 0.00 0.14 0.14 78 1010.8
20260905001025 83 215 0.0 2.0 0.00 0.14 0.14 76 1010.7
20260905000523 83 215 0.0 2.0 0.00 0.14 0.14 75 1010.7
20260905000017 84 215 1.0 2.0 0.00 0.14 0.14 76 1010.7
20260904235820 84 215 1.0 3.0 0.00 0.14 0.14 75 1010.6
20260904235013 84 215 1.0 3.0 0.00 0.14 0.14 75 1010.5
20260904234514 84 215 1.0 3.0 0.00 0.14 0.14 75 1010.5
20260904234013 84 211 0.0 3.0 0.00 0.14 0.14 74 1010.5
20260904233920 85 236 0.0 2.0 0.00 0.14 0.14 75 1010.6
20260904233012 85 309 0.0 1.0 0.00 0.14 0.14 76 1010.5
20260904232510 85 309 0.0 3.0 0.00 0.14 0.14 75 1010.7
20260904232011 85 309 0.0 3.0 0.00 0.14 0.14 75 1010.7
20260904231513 85 273 0.0 1.0 0.00 0.14 0.14 75 1010.8
20260904231011 85 222 0.0 2.0 0.00 0.14 0.14 75 1010.8
20260904230511 85 222 1.0 2.0 0.00 0.14 0.14 73 1010.8
20260904230219 85 249 1.0 4.0 0.00 0.14 0.14 74 1010.8
20260904230119 85 250 1.0 4.0 0.00 0.14 0.14 73 1010.9
20260904225009 85 257 2.0 5.0 0.00 0.14 0.14 73 1010.8
20260904224509 86 234 2.0 5.0 0.00 0.14 0.14 72 1010.8
20260904224009 86 186 2.0 5.0 0.00 0.14 0.14 71 1010.8
20260904223509 86 250 2.0 4.0 0.00 0.14 0.14 71 1010.7
20260904223009 86 336 2.0 4.0 0.00 0.14 0.14 70 1010.6
20260904222507 87 300 2.0 4.0 0.00 0.14 0.14 71 1010.6
20260904222006 87 232 2.0 6.0 0.00 0.14 0.14 70 1010.6
20260904221708 87 262 1.0 3.0 0.00 0.14 0.14 73 1010.5
20260904221620 87 236 1.0 6.0 0.00 0.14 0.14 70 1010.7
20260904220504 87 262 1.0 3.0 0.00 0.14 0.14 72 1010.3
20260904220313 87 238 1.0 3.0 0.00 0.14 0.14 72 1010.3
20260904215502 87 231 1.0 3.0 0.00 0.14 0.14 71 1010.4
20260904215006 87 231 1.0 3.0 0.00 0.14 0.14 74 1010.3
20260904214501 87 231 1.0 4.0 0.00 0.14 0.14 72 1010.4
20260904214001 87 191 2.0 4.0 0.00 0.14 0.14 71 1010.4
20260904213500 87 198 2.0 4.0 0.00 0.14 0.14 71 1010.5
20260904213011 86 192 2.0 5.0 0.00 0.14 0.14 72 1010.6
20260904212507 86 217 3.0 6.0 0.00 0.14 0.14 72 1010.6
20260904212335 86 189 3.0 6.0 0.00 0.14 0.14 70 1010.6
20260904211501 87 186 3.0 6.0 0.00 0.14 0.14 70 1010.6
20260904211004 87 219 3.0 12.0 0.00 0.14 0.14 70 1010.5
20260904210501 87 194 2.0 12.0 0.00 0.14 0.14 73 1010.6
20260904210002 87 207 2.0 4.0 0.00 0.14 0.14 71 1010.5
20260904205502 87 180 1.0 4.0 0.00 0.14 0.14 72 1010.5
20260904205327 87 221 1.0 4.0 0.00 0.14 0.14 74 1010.5
20260904204501 86 218 1.0 3.0 0.00 0.14 0.14 73 1010.5
20260904204310 86 219 2.0 3.0 0.00 0.14 0.14 74 1010.5
20260904203501 85 233 1.0 3.0 0.00 0.14 0.14 74 1010.5
20260904203001 85 251 1.0 4.0 0.00 0.14 0.14 77 1010.6
20260904202505 85 197 1.0 4.0 0.00 0.14 0.14 75 1010.6
20260904202002 85 198 2.0 3.0 0.00 0.14 0.14 75 1010.6
20260904201502 85 194 2.0 4.0 0.00 0.14 0.14 74 1010.6
20260904201001 85 194 2.0 4.0 0.00 0.14 0.14 73 1010.6
20260904200501 86 263 1.0 3.0 0.00 0.14 0.14 72 1010.4
20260904200000 86 264 1.0 3.0 0.00 0.14 0.14 70 1010.1
20260904195501 87 264 2.0 6.0 0.00 0.14 0.14 71 1010.0
20260904195001 87 198 3.0 6.0 0.00 0.14 0.14 71 1010.3
20260904194805 87 221 3.0 7.0 0.00 0.14 0.14 72 1010.4
20260904193958 86 203 3.0 7.0 0.00 0.14 0.14 71 1010.4
20260904193500 86 240 2.0 6.0 0.00 0.14 0.14 75 1010.4
20260904193309 85 177 2.0 5.0 0.00 0.14 0.14 76 1010.3
20260904192804 85 206 2.0 3.0 0.00 0.14 0.14 76 1010.3
20260904191956 84 223 2.0 3.0 0.00 0.14 0.14 78 1010.4
20260904191454 84 227 2.0 6.0 0.00 0.14 0.14 78 1010.4
20260904190953 83 195 3.0 6.0 0.00 0.14 0.14 78 1010.4
20260904190820 83 202 2.0 5.0 0.00 0.14 0.14 82 1010.6
20260904190250 82 205 2.0 5.0 0.00 0.15 0.14 82 1010.6
20260904185444 82 232 2.0 5.0 0.00 0.15 0.14 84 1010.7
20260904184945 81 175 2.0 5.0 0.00 0.15 0.14 85 1010.8
20260904184445 81 180 2.0 5.0 0.00 0.15 0.14 86 1010.9
20260904183944 80 163 2.0 5.0 0.00 0.15 0.14 85 1010.8
20260904183442 80 158 3.0 6.0 0.00 0.15 0.14 85 1010.7
20260904182938 80 158 3.0 6.0 0.00 0.15 0.14 86 1010.9
20260904182438 80 164 3.0 5.0 0.00 0.15 0.14 85 1011.0
20260904182323 80 164 3.0 7.0 0.00 0.15 0.14 85 1011.0
20260904181435 80 177 3.0 7.0 0.00 0.15 0.14 85 1011.0
20260904180934 80 174 3.0 5.0 0.00 0.15 0.14 85 1011.2
20260904180434 80 169 4.0 6.0 0.00 0.15 0.14 84 1011.1
20260904175933 80 164 4.0 6.0 0.00 0.15 0.14 83 1011.1
20260904175433 80 173 4.0 8.0 0.00 0.15 0.14 83 1011.1
20260904174932 81 172 6.0 9.0 0.00 0.15 0.14 82 1011.0
20260904174432 81 154 6.0 10.0 0.00 0.15 0.14 81 1011.2
20260904173932 81 171 5.0 10.0 0.00 0.15 0.14 81 1011.3
20260904173431 82 171 5.0 8.0 0.00 0.15 0.14 81 1011.2
20260904172930 82 168 5.0 7.0 0.00 0.15 0.14 80 1011.2
20260904172433 83 171 5.0 7.0 0.00 0.15 0.14 80 1011.1
20260904171930 83 181 6.0 10.0 0.00 0.15 0.14 79 1011.1
20260904171430 83 170 6.0 10.0 0.00 0.15 0.14 78 1011.0
20260904170930 83 167 5.0 9.0 0.00 0.15 0.14 78 1011.0
20260904170430 84 167 5.0 8.0 0.00 0.15 0.14 79 1011.0
20260904170237 83 173 4.0 6.0 0.00 0.15 0.14 79 1011.0
20260904165429 83 167 3.0 6.0 0.00 0.15 0.14 78 1011.0
20260904164929 84 182 4.0 6.0 0.00 0.15 0.14 76 1010.8
20260904164430 84 158 4.0 7.0 0.00 0.15 0.14 75 1010.9
20260904163929 84 167 4.0 7.0 0.00 0.15 0.14 75 1011.0
20260904163429 84 182 3.0 7.0 0.00 0.15 0.14 77 1011.0
20260904162928 84 176 3.0 6.0 0.00 0.15 0.14 79 1010.9
20260904162736 83 160 3.0 6.0 0.00 0.15 0.14 77 1010.9
20260904161929 83 170 2.0 5.0 0.00 0.15 0.14 77 1010.9
20260904161428 83 186 2.0 4.0 0.00 0.15 0.14 78 1010.9
20260904160928 83 177 1.0 3.0 0.00 0.15 0.14 79 1010.9
20260904160429 82 177 1.0 3.0 0.00 0.15 0.14 78 1010.9
20260904155927 82 177 0.0 2.0 0.00 0.15 0.14 80 1010.8
20260904155427 82 177 1.0 2.0 0.00 0.17 0.14 82 1010.9
20260904154925 82 177 1.0 4.0 0.00 0.18 0.14 80 1010.9
20260904154425 82 172 1.0 4.0 0.00 0.18 0.14 80 1011.1
20260904154229 81 160 1.0 4.0 0.00 0.18 0.14 81 1011.1
20260904153424 81 161 2.0 4.0 0.00 0.18 0.14 83 1011.2
20260904153050 81 99 1.0 4.0 0.00 0.18 0.14 87 1011.1
20260904153013 81 99 1.0 4.0 0.00 0.18 0.14 86 1011.2
20260904151921 80 95 1.0 4.0 0.00 0.18 0.14 87 1011.2
20260904151544 80 111 1.0 3.0 0.00 0.18 0.14 89 1011.1
20260904151512 80 104 1.0 4.0 0.00 0.18 0.14 89 1011.1
20260904150417 79 113 0.0 3.0 0.00 0.18 0.14 90 1011.1
20260904150228 79 146 0.0 0.0 0.00 0.18 0.14 91 1011.0
20260904145417 78 146 0.0 0.0 0.00 0.18 0.14 92 1010.9
20260904144918 78 146 0.0 0.0 0.00 0.18 0.14 92 1010.9
20260904144417 78 146 0.0 0.0 0.00 0.18 0.14 93 1010.9
20260904143916 78 146 0.0 0.0 0.00 0.18 0.14 94 1010.9
20260904143416 78 146 0.0 0.0 0.00 0.18 0.14 95 1010.9
20260904143225 78 146 0.0 0.0 0.00 0.18 0.14 95 1010.8
20260904142415 78 146 0.0 0.0 0.00 0.18 0.14 95 1010.8
20260904141912 77 146 0.0 0.0 0.00 0.18 0.14 95 1010.9
20260904141411 77 146 0.0 0.0 0.00 0.18 0.14 95 1010.8
20260904140912 77 146 0.0 0.0 0.00 0.18 0.14 95 1010.7
20260904140411 76 146 0.0 0.0 0.00 0.18 0.14 95 1010.7
20260904135912 76 146 0.0 0.0 0.00 0.18 0.14 95 1010.7
20260904135411 76 146 0.0 0.0 0.00 0.18 0.14 96 1010.7
20260904134910 76 146 0.0 0.0 0.00 0.19 0.14 96 1010.6
20260904134410 76 146 0.0 0.0 0.00 0.19 0.14 96 1010.6
20260904133908 76 146 0.0 0.0 0.00 0.19 0.14 95 1010.6
20260904133408 75 146 0.0 0.0 0.00 0.19 0.14 95 1010.5
20260904132909 75 146 0.0 0.0 0.00 0.20 0.14 95 1010.5
20260904132720 75 146 0.0 0.0 0.00 0.21 0.14 95 1010.5
20260904131908 75 146 0.0 0.0 0.00 0.21 0.14 95 1010.4
20260904131407 75 146 0.0 0.0 0.00 0.22 0.14 95 1010.4
20260904130905 75 146 0.0 0.0 0.00 0.23 0.14 95 1010.3
20260904130405 75 146 0.0 0.0 0.00 0.24 0.14 95 1010.3
20260904125906 75 146 0.0 0.0 0.00 0.24 0.14 95 1010.3
20260904125716 75 146 0.0 0.0 0.00 0.25 0.14 95 1010.1
20260904124908 75 146 0.0 0.0 0.00 0.25 0.14 95 1010.1
20260904124409 74 146 0.0 0.0 0.00 0.25 0.14 95 1010.1
20260904123907 74 146 0.0 0.0 0.00 0.25 0.14 95 1010.1
20260904123403 74 146 0.0 0.0 0.00 0.25 0.14 95 1010.0
20260904123021 74 146 0.0 0.0 0.00 0.26 0.14 95 1010.1
20260904122951 74 146 0.0 0.0 0.00 0.25 0.14 95 1009.8
20260904121903 74 146 0.0 0.0 0.00 0.26 0.14 94 1010.3
20260904121710 75 146 0.0 0.0 0.00 0.26 0.14 94 1010.3
20260904120901 75 146 0.0 0.0 0.00 0.26 0.14 94 1010.1
20260904120401 75 146 0.0 0.0 0.00 0.27 0.14 94 1010.0
20260904120211 75 146 0.0 0.0 0.00 0.27 0.14 94 1009.7
20260904115401 75 146 0.0 2.0 0.03 0.27 0.14 94 1009.8
20260904114901 75 146 0.0 2.0 0.03 0.29 0.14 94 1009.8
20260904114359 75 146 0.0 0.0 0.04 0.30 0.14 94 1009.8
20260904113859 75 146 0.0 0.0 0.06 0.30 0.14 94 1009.9
20260904113358 75 146 0.0 0.0 0.13 0.30 0.14 94 1009.9
20260904112857 75 146 0.0 0.0 0.13 0.30 0.14 94 1009.8
20260904112710 75 146 0.0 0.0 0.13 0.30 0.14 93 1009.6
20260904111855 75 146 0.0 0.0 0.13 0.30 0.14 93 1009.5
20260904111653 75 146 0.0 0.0 0.13 0.30 0.14 93 1009.5
20260904110852 76 146 0.0 0.0 0.13 0.30 0.14 93 1009.4
20260904110351 76 146 0.0 3.0 0.13 0.30 0.14 93 1009.4
20260904105848 76 146 0.0 3.0 0.13 0.30 0.14 93 1009.3
20260904105349 76 156 0.0 1.0 0.11 0.27 0.11 92 1009.4
20260904104847 76 156 1.0 3.0 0.11 0.27 0.10 92 1009.2
20260904104347 76 65 1.0 3.0 0.10 0.26 0.09 92 1009.4
20260904103847 76 65 0.0 3.0 0.07 0.23 0.04 91 1009.6
20260904103348 76 314 0.0 0.0 0.01 0.17 0.01 91 1009.7
20260904102849 76 314 0.0 1.0 0.01 0.17 0.01 90 1009.6
20260904102346 76 314 0.0 2.0 0.01 0.17 0.01 90 1009.3
20260904101845 76 314 1.0 4.0 0.01 0.17 0.01 90 1009.5
20260904101345 77 314 2.0 4.0 0.01 0.17 0.01 89 1009.8
20260904101022 77 313 1.0 5.0 0.01 0.17 0.01 89 1010.0
20260904100943 77 314 2.0 5.0 0.01 0.17 0.01 88 1010.0
20260904095844 78 257 0.0 1.0 0.01 0.17 0.01 88 1009.2
20260904095345 78 257 0.0 1.0 0.00 0.16 0.00 87 1009.1
20260904094845 78 257 0.0 0.0 0.00 0.16 0.00 87 1009.2
20260904094342 78 257 0.0 0.0 0.00 0.16 0.00 87 1009.0
20260904093843 78 257 0.0 0.0 0.00 0.16 0.00 86 1009.2
20260904093343 78 257 0.0 0.0 0.00 0.16 0.00 87 1009.3
20260904092842 78 257 0.0 0.0 0.00 0.16 0.00 87 1009.2
20260904092336 78 257 0.0 0.0 0.00 0.16 0.00 87 1009.2
20260904091837 78 257 0.0 1.0 0.00 0.16 0.00 87 1009.2
20260904091336 78 257 0.0 1.0 0.00 0.16 0.00 87 1009.2
20260904090835 78 257 0.0 1.0 0.00 0.16 0.00 87 1009.2
20260904090334 78 257 0.0 1.0 0.00 0.16 0.00 87 1009.3
20260904090144 78 257 0.0 3.0 0.00 0.16 0.00 87 1009.3
20260904085335 78 257 0.0 3.0 0.00 0.16 0.00 87 1009.2
20260904085144 78 217 0.0 0.0 0.00 0.16 0.00 87 1009.2
20260904084335 78 217 0.0 0.0 0.00 0.16 0.00 87 1009.3
20260904083832 78 217 0.0 0.0 0.00 0.16 0.00 87 1009.2
20260904083331 78 217 0.0 0.0 0.00 0.16 0.00 87 1009.1
20260904082831 78 217 0.0 0.0 0.00 0.16 0.00 88 1009.1
20260904082330 78 217 0.0 0.0 0.00 0.16 0.00 89 1009.0
20260904081831 78 217 0.0 0.0 0.00 0.16 0.00 89 1009.0
20260904081330 77 217 0.0 0.0 0.00 0.16 0.00 89 1009.0
20260904080830 77 217 0.0 1.0 0.00 0.16 0.00 90 1009.0
20260904080636 77 217 0.0 2.0 0.00 0.16 0.00 90 1009.0
20260904075829 77 217 0.0 2.0 0.00 0.16 0.00 90 1008.9
20260904075329 77 265 0.0 2.0 0.00 0.16 0.00 90 1008.9
20260904074829 77 219 0.0 2.0 0.00 0.16 0.00 90 1008.9
20260904074333 77 215 0.0 0.0 0.00 0.16 0.00 90 1008.9
20260904073830 77 215 0.0 1.0 0.00 0.16 0.00 90 1008.8
20260904073328 77 215 0.0 1.0 0.00 0.16 0.00 90 1008.8
20260904072829 77 199 0.0 0.0 0.00 0.16 0.00 90 1008.8
20260904072328 77 199 0.0 0.0 0.00 0.16 0.00 90 1008.7
20260904071828 78 171 0.0 0.0 0.00 0.16 0.00 90 1008.8
20260904071328 78 171 0.0 2.0 0.00 0.16 0.00 90 1008.8
20260904070828 78 171 0.0 2.0 0.00 0.16 0.00 91 1008.8
20260904070329 77 171 1.0 4.0 0.00 0.16 0.00 91 1008.9
20260904070128 77 171 1.0 4.0 0.00 0.16 0.00 92 1008.9
20260904065629 77 171 0.0 2.0 0.00 0.16 0.00 92 1009.0
20260904064828 76 238 0.0 0.0 0.00 0.16 0.00 92 1009.1
20260904064330 76 238 0.0 0.0 0.00 0.16 0.00 92 1009.1
20260904063830 76 238 0.0 0.0 0.00 0.16 0.00 92 1009.1
20260904063332 76 238 0.0 0.0 0.00 0.16 0.00 92 1009.1
20260904062832 76 238 0.0 0.0 0.00 0.16 0.00 92 1009.1
20260904062328 76 277 0.0 0.0 0.00 0.16 0.00 92 1009.1
20260904061829 76 277 0.0 0.0 0.00 0.16 0.00 92 1009.1
20260904061635 76 277 0.0 0.0 0.00 0.16 0.00 91 1009.1
20260904060830 76 105 0.0 0.0 0.00 0.16 0.00 91 1009.3
20260904060329 76 105 0.0 0.0 0.00 0.16 0.00 91 1009.3
20260904055829 76 105 0.0 0.0 0.00 0.16 0.00 90 1009.4
20260904055329 76 105 0.0 0.0 0.00 0.16 0.00 91 1009.4
20260904054828 76 105 0.0 0.0 0.00 0.16 0.00 91 1009.6
20260904054329 77 105 0.0 0.0 0.00 0.16 0.00 91 1009.6
20260904053828 77 105 0.0 0.0 0.00 0.16 0.00 92 1009.5
20260904053326 76 105 0.0 0.0 0.00 0.16 0.00 92 1009.5
20260904052824 76 105 0.0 0.0 0.00 0.16 0.00 92 1009.6
20260904052320 76 105 0.0 0.0 0.00 0.16 0.00 92 1009.7
20260904051815 76 105 0.0 0.0 0.00 0.16 0.00 91 1009.8
20260904051309 76 105 0.0 0.0 0.00 0.16 0.00 91 1009.9
20260904050810 76 105 0.0 0.0 0.00 0.16 0.00 91 1010.0
20260904050310 76 105 0.0 0.0 0.00 0.16 0.00 91 1010.0
20260904045811 76 105 0.0 1.0 0.00 0.16 0.16 91 1010.0
20260904045311 76 105 1.0 3.0 0.00 0.16 0.16 91 1010.1
20260904045117 76 105 1.0 3.0 0.00 0.16 0.16 91 1010.3
20260904044611 76 105 1.0 4.0 0.00 0.16 0.16 91 1010.3
20260904043810 76 105 1.0 4.0 0.00 0.16 0.16 91 1010.4
20260904043611 76 105 1.0 3.0 0.00 0.16 0.16 91 1010.4
20260904042810 76 105 0.0 2.0 0.00 0.16 0.16 90 1010.4
20260904042313 76 105 1.0 2.0 0.00 0.16 0.16 91 1010.6
20260904041811 76 105 1.0 2.0 0.00 0.16 0.16 90 1010.6
20260904041309 77 105 2.0 4.0 0.00 0.16 0.16 90 1010.7
20260904040812 76 105 3.0 6.0 0.00 0.16 0.16 91 1010.5
20260904040308 76 80 2.0 6.0 0.00 0.16 0.16 91 1010.4
20260904035809 76 105 2.0 6.0 0.00 0.16 0.16 91 1010.5
20260904035307 76 105 3.0 8.0 0.00 0.16 0.16 91 1010.4
20260904034806 76 90 3.0 8.0 0.00 0.16 0.16 90 1010.3
20260904034308 76 79 4.0 8.0 0.00 0.16 0.16 90 1010.1
20260904033807 76 81 4.0 9.0 0.00 0.16 0.16 90 1010.3
20260904033307 76 74 4.0 9.0 0.00 0.16 0.16 90 1010.4
20260904033116 76 80 4.0 9.0 0.00 0.16 0.16 90 1010.4
20260904032305 76 97 5.0 10.0 0.00 0.16 0.16 90 1010.6
20260904031803 76 78 4.0 10.0 0.00 0.16 0.16 90 1010.5
20260904031301 76 94 4.0 8.0 0.00 0.16 0.16 90 1010.4
20260904030801 76 80 4.0 9.0 0.00 0.16 0.16 90 1010.5
20260904030301 76 99 4.0 9.0 0.00 0.16 0.16 89 1010.4
20260904025801 77 92 4.0 7.0 0.00 0.16 0.16 89 1010.5
20260904025301 77 76 3.0 7.0 0.00 0.16 0.16 89 1010.6
20260904024802 77 82 3.0 6.0 0.00 0.16 0.16 89 1010.7
20260904024301 77 74 3.0 6.0 0.00 0.16 0.16 88 1010.7
20260904024114 77 86 3.0 6.0 0.00 0.16 0.16 88 1010.7
20260904023605 77 74 3.0 5.0 0.00 0.16 0.16 87 1010.6
20260904022801 77 80 4.0 9.0 0.00 0.16 0.16 87 1010.6
20260904022301 77 75 4.0 10.0 0.00 0.16 0.16 87 1010.5
20260904021800 78 88 4.0 10.0 0.00 0.16 0.16 86 1010.5
20260904021300 78 72 5.0 8.0 0.00 0.16 0.16 86 1010.4
20260904020801 78 74 5.0 8.0 0.00 0.16 0.16 86 1010.4
20260904020302 78 64 4.0 8.0 0.00 0.16 0.16 85 1010.4
20260904015802 78 72 4.0 8.0 0.00 0.16 0.16 85 1010.4
20260904015302 78 85 4.0 7.0 0.00 0.16 0.16 85 1010.4
20260904014802 78 84 3.0 7.0 0.00 0.16 0.16 86 1010.4
20260904014301 78 78 2.0 6.0 0.00 0.16 0.16 86 1010.4
20260904013801 78 80 3.0 5.0 0.00 0.16 0.16 86 1010.3
20260904013300 78 87 2.0 5.0 0.00 0.16 0.16 85 1010.1
20260904012801 78 78 2.0 4.0 0.00 0.16 0.16 85 1010.0
20260904012305 78 83 2.0 4.0 0.00 0.16 0.16 85 1009.9
20260904012120 78 98 2.0 6.0 0.00 0.16 0.16 85 1009.7
20260904011611 78 100 3.0 6.0 0.00 0.16 0.16 84 1009.7
20260904010801 78 86 3.0 6.0 0.00 0.16 0.16 84 1009.5
20260904010616 79 94 3.0 8.0 0.00 0.16 0.16 84 1009.5
20260904005800 79 72 3.0 8.0 0.00 0.16 0.16 84 1009.4
20260904005301 79 101 3.0 8.0 0.00 0.16 0.16 83 1009.4
20260904004801 79 96 3.0 8.0 0.00 0.16 0.16 83 1009.4
20260904004300 79 101 2.0 5.0 0.00 0.16 0.16 83 1009.5
20260904004112 79 105 1.0 3.0 0.00 0.16 0.16 83 1009.4
20260904003301 80 87 1.0 3.0 0.00 0.16 0.16 82 1009.6
20260904002802 80 87 2.0 4.0 0.00 0.16 0.16 82 1009.6
20260904002301 80 101 2.0 6.0 0.00 0.16 0.16 82 1009.6